INTELSAT 21 (IS-21)

Last updated on Sat Aug 15 2026 00:02:59 GMT+0000 (Coordinated Universal Time)

1 38749U 12045A 26226.55644269 -.00000300 00000+0 00000+0 0 9994 2 38749 0.0451 282.9212 0001942 238.1650 304.1932 1.00273025 51110
UTC large
Height (km)
Speed (km/s)
/
Latitude / Longitude
Inclination (degrees)
Orbital Period (minutes)
Azimuth
Elevation
Range (km)
Doppler Factor

Next 0 passes for location: London (51.5072 / 0.1276)

No passes found over London.
INTELSAT 21 (IS-21)